www.pogodaiklimat.ru

Погода и климат >> Архив погоды >> Пакистан >> Фейсалабад


ПОГОДА в Фейсалабаде

  • Прогноз погоды в Фейсалабаде
  • Монитор погоды в Фейсалабаде

АРХИВ ПОГОДЫ в Фейсалабаде

Время (UTC), дата Ветер
(напр.,м/с)
 
Видим.   Явления Облачность Т
(С)
Тd
(С)
f
(%)
Тe
(С)
Тes
(С)
Комфортность P
(гПа)
Po
(гПа)
Тmin
(С)
Tmax
(С)
R
(мм)
R24
(мм)
S
(см)
12 18.06 В 3 4000 м мгла 4/0
[Ac lent]
+34.5 +20.5 44 +41 +43 опасность
перегрева
997.8 977.6 +35.2
15 18.06 В 1 4000 м дым 9/3 1200 м
[Sc Ac As]
+33.0 +22.1 53 +42 +42 опасность
перегрева
998.9 1000.0
18 18.06 С 3 4000 м дым 6/3 1200 м
[Sc Ac As]
+29.0 +21.6 64 +37 +37 очень
душно
1000.0 979.4
21 18.06 штиль 0 4000 м дым 3/0
[Ac trans]
+28.0 +22.9 74 +37 +37 очень
душно
1000.3 1000.0
00 19.06 СВ 1 4000 м дым ясно +27.0 +24.0 84 +37 +37 очень
душно
1000.3 1000.0
03 19.06 штиль 0 4000 м дым ясно +30.0 +23.5 68 +41 +51 опасность
перегрева
1001.3 980.7 +25.8
06 19.06 В 3 4000 м мгла ясно +35.0 +21.1 44 +42 +59 опасность
перегрева
1001.2 981.0
09 19.06 Ю 2 4000 м дым 6/3 1200 м
[Sc diur, vesp Ci fib]
+38.5 +18.2 31 +42 +54 опасность
перегрева
999.2 1000.0
12 19.06 ЮЗ 1 4000 м мгла 6/3 1200 м
[Sc diur, vesp Ci fib]
+39.0 +18.9 31 +43 +46 опасность
перегрева
997.4 1000.0 +39.7
15 19.06 штиль 0 4000 м мгла 4/0
[Ac trans]
+36.0 +19.7 39 +42 +42 опасность
перегрева
998.2 1000.0
18 19.06 штиль 0 4000 м дым 3/0
[Ac trans]
+33.0 +21.3 50 +41 +41 опасность
перегрева
999.6 979.3
21 19.06 штиль 0 4000 м дым 5/0
[Ac trans]
+31.5 +21.2 54 +39 +39 очень
душно
999.7 1000.0
00 20.06 штиль 0 4000 м дым ясно +30.0 +22.0 62 +39 +39 очень
душно
1000.5 1000.0
03 20.06 штиль 0 4000 м дым ясно +33.0 +21.3 50 +41 +51 опасность
перегрева
1001.3 980.9 +29.5
06 20.06 ЮЗ 1 4000 м мгла 6/6 1200 м
[Sc diur, vesp]
+38.0 +19.5 34 +43 +52 опасность
перегрева
1001.8 1000.0
09 20.06 В 3 2000 м гроза без осадков 8/8 900 м
[Cb cap]
+33.0 +19.5 45 +39 +44 очень
душно
1001.0 1000.0
12 20.06 В 3 4000 м мгла {гроза} 6/3 1200 м
[Sc diur, vesp Ac As]
+35.0 +16.3 33 +38 +39 очень
душно
998.4 1000.0 +39.3
15 20.06 СЗ 4 4000 м мгла {гроза, дождь} 10/5 900 м
[Cb cap As op]
+24.0 +20.2 79 +30 +30 очень
душно
1004.7 1000.0 9
18 20.06 Ю 3 4000 м зарница {гроза, дождь} 9/1 900 м
[Cb cap Ac As]
+23.0 +20.7 87 +30 +30 очень
душно
1001.7 1000.0 5
21 20.06 С 1 4000 м дым {гроза} 4/0
[Ac trans]
+23.0 +20.7 87 +30 +30 очень
душно
1002.4 1000.0
00 21.06 штиль 0 4000 м дым 4/0
[Ac trans]
+23.0 +19.9 83 +30 +30 очень
душно
1003.9 982.8
03 21.06 штиль 0 4000 м дым 3/0
[Ac trans]
+27.0 +21.0 70 +34 +42 очень
душно
1005.2 1000.0 +22.5
06 21.06 ЮВ 1 4000 м мгла ясно +33.0 +19.5 45 +39 +62 опасность
солнечного
удара
1005.2 1000.0
09 21.06 штиль 0 4000 м мгла ясно +36.5 +18.4 35 +41 +65 опасность
перегрева
1003.0 1000.0
12 21.06 СЗ 1 4000 м мгла ясно +36.0 +19.7 39 +42 +47 опасность
перегрева
1000.2 1000.0 +37.3
15 21.06 С 1 4000 м дым 3/0
[Ac trans]
+33.0 +22.1 53 +42 +42 опасность
перегрева
1001.1 1000.0
18 21.06 штиль 0 4000 м дым ясно +30.0 +22.8 65 +40 +40 очень
душно
1001.1 1000.0
21 21.06 штиль 0 4000 м дым ясно +28.5 +23.5 74 +39 +39 очень
душно
1001.2 1000.0
00 22.06 штиль 0 4000 м дым 3/0
[Ac trans]
+27.0 +23.4 81 +37 +37 очень
душно
1001.4 1000.0
03 22.06 штиль 0 2000 м дым 3/0
[Ac trans]
+33.0 +22.1 53 +42 +50 опасность
перегрева
1002.6 1000.0 +26.5
06 22.06 СЗ 1 4000 м мгла ясно +37.0 +18.1 33 +41 +64 опасность
перегрева
1002.6 1000.0
09 22.06 СЗ 1 4000 м мгла ясно +40.0 +18.3 28 +43 +64 опасность
перегрева
1000.4 1000.0
12 22.06 СЗ 1 4000 м мгла ясно +39.0 +17.9 29 +42 +47 опасность
перегрева
998.3 1000.0 +40.3
15 22.06 штиль 0 4000 м мгла ясно +36.5 +20.3 39 +43 +43 опасность
перегрева
998.5 1000.0
18 22.06 штиль 0 4000 м дым ясно +33.0 +22.1 53 +42 +42 опасность
перегрева
999.9 1000.0
21 22.06 Ю 1 4000 м дым ясно +31.5 +23.6 63 +43 +43 опасность
перегрева
999.9 1000.0
00 23.06 штиль 0 2000 м дым 3/0
[Ac trans]
+30.0 +24.3 72 +42 +42 опасность
перегрева
999.8 1000.0
03 23.06 ЮВ 1 2000 м дым 3/3 1200 м
[Sc]
+34.5 0.0 11 +31 +37 жарко 1000.9 1000.0 +29.1
06 23.06 штиль 0 4000 м мгла 4/4 1200 м
[Sc diur, vesp]
+38.5 +22.0 39 +47 +63 опасность
перегрева
1001.1 1000.0
09 23.06 ЮВ 4 4000 м гроза, ливневой дождь 9/6 900 м
[Cb cap Ac As]
+33.0 +24.6 61 +46 +47 опасность
перегрева
1000.1 1000.0 3
12 23.06 В 5 4000 м дым {гроза, дождь} 9/5 1200 м
[Sc Ac As]
+27.0 +22.6 77 +36 +36 очень
душно
1001.2 980.4 +40.2 21
15 23.06 С 3 4000 м дым 9/4 1200 м
[Sc Ac As]
+28.5 +21.1 64 +36 +36 очень
душно
1000.8 1000.0
18 23.06 С 1 4000 м дым 10/4 1200 м
[Sc As op]
+27.0 +21.0 70 +34 +34 очень
душно
1001.9 1000.0
21 23.06 СВ 3 4000 м дым 10/4 1200 м
[Sc As op]
+26.5 +22.1 77 +34 +34 очень
душно
1002.7 981.9
00 24.06 ЮВ 2 4000 м дым 9/4 1200 м
[Sc Ac As]
+26.0 +22.3 80 +34 +34 очень
душно
1003.5 1000.0
03 24.06 Ю 2 4000 м дым 9/3 <50 м
[Sc Ac As]
+28.0 +22.1 70 +36 +37 очень
душно
1005.4 1000.0 +22.5
06 24.06 штиль 0 4000 м дым 9/4 1200 м
[Sc Ac As]
+30.0 +22.0 62 +39 +41 очень
душно
1005.5 1000.0
09 24.06 СВ 1 4000 м дым 9/4 1200 м
[Sc Ac As]
+31.0 +22.3 60 +40 +42 очень
душно
1004.2 1000.0
12 24.06 СВ 4 4000 м дым 9/3 1200 м
[Sc Ac As]
+32.0 +22.6 58 +42 +43 опасность
перегрева
1001.8 981.4 +32.5
15 24.06 штиль 0 4000 м дым 4/0
[Ac trans]
+30.0 +17.0 46 +34 +34 очень
душно
1003.2 1000.0
18 24.06 ЮЗ 1 4000 м дым 4/0
[Ac trans]
+28.5 +23.5 74 +39 +39 очень
душно
1004.2 1000.0
21 24.06 СВ 2 4000 м дым 6/3 1200 м
[Sc Ac As]
+27.0 +24.9 88 +39 +39 очень
душно
1003.8 1000.0
00 25.06 штиль 0 4000 м дым 9/3 1200 м
[Sc Ac As]
+27.0 +24.1 84 +37 +37 очень
душно
1004.4 1000.0
03 25.06 штиль 0 2000 м дым 8/1 1200 м
[Sc Ac As]
+30.0 +23.5 68 +41 +43 опасность
перегрева
1004.5 1000.0 +26.5
06 25.06 СВ 1 4000 м мгла 3/3 1200 м
[Sc]
+35.0 +20.2 42 +41 +58 опасность
перегрева
1004.2 1000.0

 

Местоположение метеостанции Фейсалабад (Пакистан): широта 31.43 долгота 73.10 высота над уровнем моря 184 м.

В архиве по умолчанию представлена погода в Фейсалабаде за последнюю неделю. Архивные данные за месяц целиком и за предыдущие месяцы, начиная с января 2011 года, Вы можете получить, выбрав интересующий диапазон дат из раскрывающегося списка и нажав кнопку "Ввод!".


*Определитесь, кто Вы:
робот инопланетянин человек

Внимание! Время в таблицах - всемирное. Для получения местного времени необходимо прибавить поправку, которая равна 5 ч.

Смотрите также архив погоды в соседних городах и на ближайших метеорологических станциях:

Погода в Джанге (Пакистан) (76 км)
Погода в Окаре (Пакистан) (77 км)
Погода в Тоба Тек Сингх (Пакистан) (78 км)
Погода в Саргодхе (Пакистан) (80 км)
Погода в Саргодхе (Пакистан) (80 км)
Погода в Сахивале (Пакистан) (86 км)
Погода в Хафизабаде (Пакистан) (89 км)
Погода на Авиабазе Raifiqui (Пакистан) (112 км)
Погода в Лахоре (Пакистан) (117 км)
Погода в Нур Пур Тал (Пакистан) (124 км)

Пояснения к столбцам:

Ветер - указаны скорость ветра в м/с - средняя за 10 мин, порывы в срок и между сроками (в фигурных скобках) и направление, откуда дует ветер: С - северный, СВ - северо-восточный, В - восточный, ЮВ - юго-восточный, Ю - южный, ЮЗ - юго-западный, З - западный, СЗ - северо-западный.
Видимость - горизонтальная дальность видимости в метрах или километрах. При видимости от 1 до 10 км при отсутствии осадков обычно наблюдается дымка, при ухудшении видимости до 1 км и менее - туман. В сухую погоду видимость может ухудшаться дымом, пылью или мглою.
Явления - указаны атмосферные явления, наблюдавшиеся в срок или в последний час перед сроком; фигурными скобками обозначены явления, наблюдавшиеся между сроками (за 1-3 часа до срока); квадратными скобками обозначены град или гололедные отложения с указанием их диаметра в мм.
Облачность - указаны через наклонную черту общая и нижняя облачность в баллах и высота нижней границы облаков в метрах; квадратными скобками обозначены формы облаков: Ci - перистые, Cs - перисто-слоистые, Cc - перисто-кучевые, Ac - высококучевые, As - высокослоистые, Sc - слоисто-кучевые, Ns - слоисто-дождевые, Cu - кучевые, Cb - кучево-дождевые. Подробнее классификацию облаков см. в Атласе облаков (PDF).
T - Температура воздуха - температура, измеренная на высоте 2 м над землей.
Td - Температура точки росы - температура, при понижении до которой содержащийся в воздухе водяной пар достигнет насыщения.
f - Относительная влажность воздуха - влажноcть воздуха, измеренная на высоте 2 м над землей.
Te - Эффективная температура - температура, которую ощущает одетый по сезону человек в тени. Характеристика душности погоды. При расчете учитывается влияние влажности воздуха и скорости ветра на теплоощущения человека.
Tes - Эффективная температура на солнце - температура, которую ощущает человек, с поправкой на солнечный нагрев. Характеристика знойности погоды. Зависит от высоты солнца над горизонтом, облачности и скорости ветра. Ночью, в пасмурную погоду, а также при ветре 12 м/с и более поправка равна нулю.
P - Атмосферное давление - приведенное к уровню моря атмосферное давление.
Po - Атмосферное давление - измеренное на уровне метеостанции атмосферное давление.
Tmin - Минимальная температура - минимум температуры воздуха на высоте 2 м над землей.
Tmax - Максимальная температура - максимум температуры воздуха на высоте 2 м над землей.
R - Количество осадков - Количество выпавших осадков за период времени, мм. При наведении курсора мыши на число - период времени, за который выпало указанное количество осадков.
R24 - Количество осадков - Количество выпавших осадков за 24 часа, мм.
S - Снежный покров - Высота снежного покрова, см. При наведении курсора мыши на число - состояние снежного покрова и степень покрытия местности в баллах.